Addis Ababa, Ethiopia

3:23 PM EAT on June 24, 2017 (GMT +0300)
Addis Ababa

Weather History for HAAB - October, 2012

Change the Weather History Date:

Thursday, October 11, 2012

  Actual Average Record
Temperature  
Mean Temperature 62 °F -  
Max Temperature 75 °F 67 °F 77 °F (2015)
Min Temperature 48 °F 53 °F 35 °F (2000)
Degree Days  
Heating Degree Days 4    
Growing Degree Days 12 (Base 50)    
Moisture  
Dew Point 52 °F    
Average Humidity 61    
Maximum Humidity 78    
Minimum Humidity 31    
Precipitation  
Precipitation 0.00 in - - ()
Sea Level Pressure  
Sea Level Pressure 30.15 in    
Wind  
Wind Speed 8 mph ()    
Max Wind Speed 17 mph    
Max Gust Speed -    
Visibility 10.3 miles    
Events      
Averages and records for this station are not official NWS values.
T = Trace of Precipitation, MM = Missing Value Source: Averaged Metar Reports

Daily Weather History Graph

Daily Weather History Graph

Search for Another Location

Airport or City:

Trip Planner

Search our weather history database for the weather conditions in past years. The results will help you decide how hot, cold, wet, or windy it might be!

Date:

Astronomy

Oct. 11, 2012 Rise Set
Actual Time 6:12 AM EAT 6:10 PM EAT
Civil Twilight 5:51 AM EAT 6:31 PM EAT
Nautical Twilight 5:27 AM EAT 6:55 PM EAT
Astronomical Twilight 5:02 AM EAT 7:20 PM EAT
Moon 2:17 AM EAT (10/11) 2:52 PM EAT (10/11)
Length of Visible Light 12h 39m
Length of Day
11h 57m
Waning Crescent, 21% of the Moon is Illuminated
Oct 11
Waning Crescent
Oct 15
New
Oct 22
First Quarter
Oct 29
Full
Nov 7
Last Quarter

Hourly Weather History & Observations

Time (EAT) Temp. Dew Point Humidity Pressure Visibility Wind Dir Wind Speed Gust Speed Precip Events Conditions
12:00 AM 62 °F 48 °F 49% 29.87 in 19 mi Calm Calm - -   Mostly Cloudy
12:00 AM 62.6 °F 48.2 °F 59% 30.30 in 6.2 mi NE 9.2 mph - N/A   Mostly Cloudy
1:00 AM 60.8 °F 46.4 °F 59% 30.27 in 6.2 mi NE 9.2 mph - N/A   Mostly Cloudy
2:00 AM 60.8 °F 44.6 °F 55% 30.27 in 6.2 mi SE 6.9 mph - N/A   Scattered Clouds
3:00 AM 58 °F 47 °F 57% 29.89 in 19 mi NE 8.9 mph - -   Scattered Clouds
3:00 AM 59.0 °F 46.4 °F 63% 30.24 in 6.2 mi NE 9.2 mph - N/A   Partly Cloudy
4:00 AM 57.2 °F 44.6 °F 63% 30.27 in 6.2 mi SE 2.3 mph - N/A   Partly Cloudy
5:00 AM 57.2 °F 44.6 °F 63% 30.27 in 6.2 mi NW 6.9 mph - N/A   Partly Cloudy
6:00 AM 54 °F 44 °F 59% 30.00 in 19 mi North 4.5 mph - -   Scattered Clouds
6:00 AM 53.6 °F 44.6 °F 72% 30.27 in 6.2 mi North 4.6 mph - N/A   Partly Cloudy
7:00 AM 53.6 °F 42.8 °F 67% 30.30 in 6.2 mi North 6.9 mph - N/A   Partly Cloudy
9:00 AM 64 °F 47 °F 43% 29.87 in 19 mi Calm Calm - -  
9:00 AM 64.4 °F 46.4 °F 52% 30.30 in - East 12.7 mph - N/A   Unknown
10:00 AM 68.0 °F 50.0 °F 52% 30.30 in - East 17.3 mph - N/A   Unknown
11:00 AM 69.8 °F 50.0 °F 49% 30.30 in - East 16.1 mph - N/A   Clear
12:00 PM 72 °F 47 °F 31% 29.73 in 19 mi ESE 15.7 mph - -  
12:00 PM 71.6 °F 48.2 °F 43% 30.27 in - ESE 15.0 mph - N/A   Clear
2:00 PM 73.4 °F 62.6 °F 69% 30.24 in 6.2 mi ESE 11.5 mph - N/A   Partly Cloudy
3:00 PM 74 °F 62 °F 59% 29.60 in 19 mi Calm Calm - -   Scattered Clouds
3:00 PM 75.2 °F 62.6 °F 65% 30.21 in 6.2 mi SE 11.5 mph - N/A   Partly Cloudy
4:00 PM 75.2 °F 64.4 °F 69% 30.18 in 6.2 mi ESE 11.5 mph - N/A   Partly Cloudy
5:00 PM 75.2 °F 62.6 °F 65% 30.18 in 6.2 mi ESE 13.8 mph - N/A   Partly Cloudy
6:00 PM 69 °F 62 °F 73% 29.67 in 19 mi Calm Calm - -   Scattered Clouds
6:00 PM 69.8 °F 62.6 °F 78% 30.18 in 6.2 mi East 13.8 mph - N/A   Partly Cloudy
7:00 PM 66.2 °F 57.2 °F 73% 30.24 in 6.2 mi East 9.2 mph - N/A   Partly Cloudy
8:00 PM 64.4 °F 55.4 °F 73% 30.24 in 6.2 mi ENE 13.8 mph - N/A   Partly Cloudy
9:00 PM - - N/A% 30.27 in - East 6.9 mph - N/A   Unknown
10:00 PM 64.4 °F 51.8 °F 64% 30.27 in - East 6.9 mph - N/A   Unknown
11:00 PM 62.6 °F 53.6 °F 72% 30.27 in - East 4.6 mph - N/A   Unknown